Regional Weather Roundup
Issued by NWS Sterling, VA

Home | Current Version | Previous Version | Graphics & Text | Print | Product List | Glossary On
Versions: 1 2 3 4 5 6 7 8 9 10 11 12 13 14 15 16 17 18 19 20 21 22 23 24 25 26 27 28 29 30 31 32 33 34 35 36 37 38 39 40 41 42 43 44 45 46 47 48 49 50
000
ASUS41 KLWX 180710
RWRLWX

REGIONAL WEATHER ROUNDUP
NATIONAL WEATHER SERVICE BALTIMORE MD/WASHINGTON DC
300 AM EDT THU SEP 18 2014

Note: "FAIR" indicates few or no clouds below 12,000 feet
with no significant weather and/or obstructions to visibility.
 TC=TEMPERATURE CELSIUS

 * =Non NWS site. Station does not report precipitation (e.g. rain,
    snow, etc.), thunder, or fog.

DCZ001-MDZ009-015-VAZ040>042-051-053>054-180800-
WASHINGTON METRO

CITY           SKY/WX    TMP DP  RH WIND       PRES   REMARKS
WASHINGTON NAT MOCLDY    66  53  63 CALM      29.97F
DULLES         MOCLDY    54  51  90 CALM      29.98S
ANDREWS AFB    MOCLDY    57  53  84 CALM      29.97S
QUANTICO       CLOUDY    60  56  86 NW6       29.98S
COLLEGE PARK*  CLOUDY    59  55  88 CALM      29.96F
LEESBURG*      CLOUDY    55  55 100 CALM      29.98S
MANASSAS*      PTCLDY    54  54 100 CALM      29.98S
GAITHERSBURG*  MOCLDY    54  52  94 CALM      30.01S

$$

MDZ006>007-011-014-180800-
BALTIMORE METRO

CITY           SKY/WX    TMP DP  RH WIND       PRES   REMARKS
BWI AIRPORT    MOCLDY    54  52  93 CALM      29.96F
MD SCIENCE CTR   N/A     63  52  67 MISG      29.97F
MARTIN STATE   CLEAR     54  54 100 CALM      29.98S
ANNAPOLIS      CLOUDY    62  56  80 CALM      29.96S
FORT MEADE*    CLOUDY    52  52 100 CALM      29.99S

$$

MDZ012-015-019>023-180800-
MARYLAND EASTERN SHORE

CITY           SKY/WX    TMP DP  RH WIND       PRES   REMARKS
OCEAN CITY     CLEAR     51  48  89 CALM      29.96F
SALISBURY      CLEAR     55  49  80 CALM      29.97S
BAY BRIDGE AP*   N/A     63  50  63 CALM      29.97S
CAMBRIDGE*     CLEAR     55  54  94 CALM      29.96S
EASTON*        CLEAR     56  55  99 CALM      30.00S

$$

MDZ017>025-180800-
SOUTHERN MARYLAND

CITY           SKY/WX    TMP DP  RH WIND       PRES   REMARKS
PATUXENT RIVER CLOUDY    61  56  83 SW5       29.96S
ST INIGOES       N/A    N/A N/A N/A MISG      29.96R
LEONARDTOWN*   CLOUDY    57  52  82 CALM      29.98S

$$

MDZ003>005-180800-
NORTH CENTRAL MARYLAND

CITY           SKY/WX    TMP DP  RH WIND       PRES   REMARKS
FREDERICK*     MOCLDY    54  52  94 CALM      30.00F FOG
HAGERSTOWN APT CLEAR     52  48  86 NW6       29.97F
WESTMINSTER*   PTCLDY    54  50  87 CALM      29.98S

$$

MDZ501>502-180800-
WESTERN MARYLAND

CITY           SKY/WX    TMP DP  RH WIND       PRES   REMARKS
OAKLAND*       MOCLDY    54  50  87 CALM      30.02R
CUMBERLAND*    MOCLDY    54  50  87 CALM      30.02R

$$

VAZ025>031-180800-
SHENANDOAH VALLEY

CITY           SKY/WX    TMP DP  RH WIND       PRES   REMARKS
WINCHESTER*    PTCLDY    52  50  93 CALM      29.97S
STAUNTON*      CLEAR     52  49  92 CALM      30.00S

$$

WVZ021-048>050-054>055-180800-
EASTERN WEST VIRGINIA PANHANDLE

CITY           SKY/WX    TMP DP  RH WIND       PRES   REMARKS
MARTINSBURG    CLEAR     57  50  77 CALM      29.97F
PETERSBURG*    PTCLDY    50  48  93 W3        30.00S FOG

$$

VAZ036>039-050-180800-
CENTRAL FOOTHILLS

CITY           SKY/WX    TMP DP  RH WIND       PRES   REMARKS
CHARLOTTESVILL CLOUDY    55  53  93 CALM      29.97F
ORANGE*        PTCLDY    52  52 100 CALM      29.98F

$$

VAZ055>057-180800-
NORTH AND CENTRAL PIEDMONT

CITY           SKY/WX    TMP DP  RH WIND       PRES   REMARKS
FREDERICKSBRG* CLOUDY    57  57  99 CALM      29.96S
STAFFORD*      CLOUDY    53  53 100 CALM      30.01S

$$

NCZ024-NYZ072-PAZ021-071-VAZ022-071-180800-
OTHER REGIONAL OBSERVATIONS

CITY           SKY/WX    TMP DP  RH WIND       PRES   REMARKS
NEW YORK CITY  CLEAR     61  51  70 VRB5      29.99F
PHILADELPHIA   CLEAR     60  53  77 SW5       29.97F
ROANOKE        CLEAR     57  55  93 CALM      30.00S
RICHMOND       PTCLDY    61  58  90 CALM      29.96S
RALEIGH        PTCLDY    64  59  83 CALM      29.95F

$$

ANZ530>537-180800-
MARINE OBSERVATIONS

STATION/POSITION TIME  TEMP    WIND        PRES
                       AIR SEA DIR/SP/G
                 (UTC) (F)     (DEG/KT/KT) (MB)
THOMAS PT LIGHT  0700   69 74  170/  9/ 10 1015.5F
BALT KEY BRIDGE  0700   65     230/  2/  3 1014.4F
COVE POINT       0700   69     170/  6/  9 1014.4R
LEWISETTA        0700   64 74  240/  2/  2 1014.1F
SOLOMONS ISLAND  0700      76                N/A
PINEY POINT      0700          210/  7/  8   N/A

$$



USA.gov is the U.S. government's official web portal to all federal, state and local government web resources and services.